Location: Lombard
(41.8800°N, 88.0080°W)
Time: 22:46:26
(UTC-05:00)

A-11 Canister half - Pass Details

Date: 05 February 2023
Orbit: 1512 x 1687 km, 47.2° (Epoch: 20 March)

Event Time Altitude Azimuth Distance (km) Brightness Sun altitude
Rises 17:48:18 0° 294° (WNW) 4,699 12.5 -7.2°
Reaches altitude 10° 17:51:51 10° 284° (WNW) 3,696 12.1 -7.9°
Maximum altitude 17:59:23 29° 229° (SW) 2,493 10.9 -9.2°
Drops below altitude 10° 18:06:52 10° 174° (S) 3,662 11.1 -10.6°
Sets 18:10:24 0° 163° (SSE) 4,649 11.5 -11.2°
